Dati Storici

Data ora Umidita' aria (%) Temperatura aria (°C) Rad globale (W/m²) Gonioanemometro (°) Tacoanemometro (m/s) Pioggia (mm)
26-06-2020 17:30 61.1 % 27.623 107.168 0.995 0 0
26-06-2020 17:20 61.8 % 27.134 114.089 1.463 0 0
26-06-2020 17:10 60.7 % 26.901 82.648 1.27 0 0
26-06-2020 17:00 59.8 % 27.252 100.24 1.48 0 0
26-06-2020 16:50 59.5 % 27.904 130.919 1.391 0 0
26-06-2020 16:40 56.8 % 27.946 69.847 0.296 0 0
26-06-2020 16:30 56.6 % 27.366 51.936 2.086 0 0
26-06-2020 16:20 57.1 % 28.383 104.264 0.55 0 0
26-06-2020 16:10 57.7 % 28.095 118.725 2.767 0 0
26-06-2020 16:00 56.5 % 27.663 89.429 1.207 0 0
26-06-2020 15:50 56.4 % 28.068 86.875 1.751 0 0
26-06-2020 15:40 56.7 % 27.841 107.202 1.994 0 0
26-06-2020 15:30 55.5 % 27.661 -35.061 1.461 0 0
26-06-2020 15:20 55.8 % 27.757 -45.509 1.623 0 0
26-06-2020 15:10 54.7 % 28.017 -49.789 2.375 0 0
26-06-2020 15:00 54.8 % 27.164 -58.057 1.72 0 0
26-06-2020 14:50 56 % 28.237 -51.1 -0.039 0 0
26-06-2020 14:40 56.1 % 28.146 -56.426 1.923 0 0
26-06-2020 14:30 56.2 % 27.229 112.256 2.559 0 0
26-06-2020 14:20 56 % 26.646 131.157 2.118 0 0

I dati sono presentati in modo automatico a scopo informativo. In seguito a verifica i dati possono subire modifiche o essere invalidati e non riportati negli archivi definitivi.